Flag for Canada Weather past 2 weeks in Waterloo, Ontario, Canada

Now
73 °F

Sunny.


Feels Like: 77 °F
Forecast: N/A
Wind: 6 mph from Southeast

Location: Waterloo Well

Current Time: Jul 3, 2015 at 5:17:56 PM

Latest Report: Jul 3, 2015 at 4:00 PM


Visibility: 9 mi

Pressure: 29.97 "Hg

Humidity: 36%

Dew point: 45 °F

Location of WaterlooLocation

Historic Weather in Waterloo — Graph

°F

Waterloo temperature yesterday

Maximum temperature yesterday: 70 °F (at 5:00 PM)
Minimum temperature yesterday: 50 °F (at 6:01 AM)
Average temperature yesterday: 60 °F

Past Weeks' High & Low Weather Summary

 TemperatureHumidityPressure
High81 °F (Jun 22, 2:00 PM)100% (Jun 20, 4:00 AM)30.13 "Hg (Jun 20, 4:00 AM)
Low43 °F (Jul 3, 6:00 AM)36% (Jul 3, 4:00 PM)29.66 "Hg (Jun 23, 5:00 AM)
Average63 °F78%29.92 "Hg
* Reported Jun 18 4:00 PM — Jul 3 4:00 PM, Waterloo, Weather by CustomWeather, © 2015

Note: Actual official high and low records may vary slightly from our data, if they occured in-between our weather recording intervals... More about our weather records

Advertising

Waterloo weather history for previous 24 hours

 ConditionsComfort  
Time TempWeatherWind HumidityBarometerVisibility
4:00 PM
Fri, Jul 3
73 °FSunny.6 mph36%29.97 "Hg9 mi
3:00 PM72 °FSunny.6 mph38%29.98 "Hg9 mi
2:00 PM72 °FSunny.5 mph41%29.98 "Hg9 mi
1:00 PM70 °FSunny.3 mph40%30.00 "Hg9 mi
12:00 PM70 °FSunny.5 mph40%30.01 "Hg9 mi
11:00 AM68 °FSunny.2 mph40%30.03 "Hg9 mi
10:00 AM66 °FSunny.5 mph46%30.03 "Hg9 mi
9:00 AM59 °FSunny.2 mph72%30.03 "Hg9 mi
8:00 AM52 °FSunny.No wind88%30.03 "Hg9 mi
7:00 AM46 °FSunny.No wind93%30.03 "Hg9 mi
6:00 AM43 °FClear.3 mph100%30.03 "Hg9 mi
5:00 AM45 °FClear.2 mph93%30.02 "Hg9 mi
4:00 AM45 °FClear.No wind93%30.01 "Hg9 mi
3:00 AM45 °FClear.2 mph93%30.01 "Hg9 mi
2:00 AM46 °FClear.2 mph93%30.02 "Hg9 mi
1:00 AM48 °FClear.2 mph94%30.02 "Hg9 mi
12:00 AM52 °FClear.3 mph77%30.01 "Hg9 mi
11:00 PM
Thu, Jul 2
50 °FClear.5 mph88%30.01 "Hg9 mi
10:00 PM59 °FSunny.6 mph55%30.00 "Hg9 mi
9:00 PM61 °FSunny.5 mph72%29.98 "Hg9 mi
8:00 PM66 °FSunny.6 mph56%29.98 "Hg9 mi
7:00 PM68 °FScattered clouds.9 mph49%29.97 "Hg9 mi
6:00 PM70 °FScattered clouds.5 mph50%29.97 "Hg9 mi
5:00 PM70 °FPartly sunny.8 mph46%29.97 "Hg9 mi
Weather by CustomWeather, © 2015

See weather overviewHow to use our weather pages